FW7746 Weather Reports


time (UTC)temp
F
wind
direction
speed
knots
gust
knots
rain 1hr
in
rain 24hr
in
rain mn
in
humidity
%
barometer
mb
20260505190104 74 355 0.0 2.6 0.00 0.00 0.00 36 1010.3
20260505185604 73 341 0.9 2.6 0.00 0.00 0.00 35 1010.4
20260505185104 73 329 0.9 2.6 0.00 0.00 0.00 35 1010.3
20260505184604 73 319 2.6 5.2 0.00 0.00 0.00 36 1010.5
20260505184104 72 336 0.9 2.6 0.00 0.00 0.00 37 1010.4
20260505183604 72 315 0.0 0.0 0.00 0.00 0.00 35 1010.5
20260505182604 72 334 0.0 1.7 0.00 0.00 0.00 37 1010.5
20260505182104 71 340 0.0 1.7 0.00 0.00 0.00 35 1010.4
20260505181604 71 345 0.9 2.6 0.00 0.00 0.00 37 1010.4
20260505180604 70 337 0.0 4.3 0.00 0.00 0.00 38 1010.5
20260505180105 71 335 0.9 2.6 0.00 0.00 0.00 37 1010.5
20260505175604 70 69 0.0 1.7 0.00 0.00 0.00 38 1010.5
20260505175104 69 23 0.0 0.9 0.00 0.00 0.00 40 1010.6
20260505174604 68 340 0.0 2.6 0.00 0.00 0.00 39 1010.6
20260505174104 68 46 0.0 1.7 0.00 0.00 0.00 40 1010.6
20260505173604 67 56 0.0 2.6 0.00 0.00 0.00 40 1010.6
20260505173104 67 335 0.0 2.6 0.00 0.00 0.00 41 1010.5
20260505172604 67 338 0.9 2.6 0.00 0.00 0.00 41 1010.5
20260505172104 67 347 0.0 2.6 0.00 0.00 0.00 40 1010.4
20260505171104 67 265 0.0 1.7 0.00 0.00 0.00 41 1010.4
20260505170606 67 250 0.0 1.7 0.00 0.00 0.00 41 1010.5
20260505170104 67 186 0.0 0.0 0.00 0.00 0.00 42 1010.5
20260505165604 66 229 0.0 0.0 0.00 0.00 0.00 42 1010.6
20260505165104 66 170 0.0 0.0 0.00 0.00 0.00 43 1010.6
20260505164104 65 174 0.0 0.0 0.00 0.00 0.00 45 1010.6
20260505163604 64 173 0.0 0.0 0.00 0.00 0.00 45 1010.7
20260505163104 63 236 0.0 0.0 0.00 0.00 0.00 48 1010.6
20260505162604 63 236 0.0 0.0 0.00 0.00 0.00 50 1010.6
20260505162104 62 235 0.0 0.0 0.00 0.00 0.00 52 1010.6
20260505161604 61 236 0.0 0.0 0.00 0.00 0.00 53 1010.5
20260505161104 60 237 0.0 0.0 0.00 0.00 0.00 55 1010.5
20260505160104 57 238 0.0 0.0 0.00 0.00 0.00 63 1010.6
20260505153104 55 238 0.0 0.0 0.00 0.00 0.00 66 1010.7
20260505152604 55 238 0.0 0.0 0.00 0.00 0.00 66 1010.6
20260505152103 54 238 0.0 0.0 0.00 0.00 0.00 66 1010.5
20260505151604 54 238 0.0 0.0 0.00 0.00 0.00 67 1010.4
20260505151103 54 238 0.0 0.0 0.00 0.00 0.00 67 1010.5
20260505150104 53 238 0.0 0.0 0.00 0.00 0.00 68 1010.4
20260505140603 47 157 0.0 0.9 0.00 0.00 0.00 76 1009.6
20260505130103 46 258 0.0 0.0 0.00 0.00 0.00 77 1009.2
20260505124103 46 281 0.0 0.0 0.00 0.00 0.00 77 1009.1
20260505123603 46 284 0.0 0.0 0.00 0.00 0.00 77 1009.1
20260505123104 46 284 0.0 0.0 0.00 0.00 0.00 76 1009.0
20260505121604 46 287 0.0 0.0 0.00 0.00 0.00 77 1008.8
20260505121103 46 287 0.0 0.0 0.00 0.00 0.00 77 1008.8
20260505120604 46 287 0.0 0.0 0.00 0.00 0.00 77 1008.8
20260505115103 46 287 0.0 0.0 0.00 0.00 0.00 76 1008.7
20260505114603 46 287 0.0 0.0 0.00 0.00 0.00 76 1008.7
20260505114103 47 287 0.0 0.0 0.00 0.00 0.00 76 1008.7
20260505113604 47 287 0.0 0.0 0.00 0.00 0.00 76 1008.8
20260505113103 47 287 0.0 0.0 0.00 0.00 0.00 76 1008.7
20260505112603 47 287 0.0 0.0 0.00 0.00 0.00 76 1008.7
20260505112103 47 287 0.0 0.0 0.00 0.00 0.00 75 1008.8
20260505111603 47 287 0.0 0.0 0.00 0.00 0.00 75 1008.7
20260505111103 47 287 0.0 0.0 0.00 0.00 0.00 75 1008.7
20260505110603 47 287 0.0 0.0 0.00 0.00 0.00 75 1008.7
20260505102103 48 292 0.0 0.0 0.00 0.00 0.00 74 1008.5
20260505101603 48 292 0.0 0.0 0.00 0.00 0.00 74 1008.4
20260505100603 49 292 0.0 0.0 0.00 0.00 0.00 74 1008.5
20260505100104 49 292 0.0 0.0 0.00 0.00 0.00 74 1008.6
20260505095603 49 292 0.0 0.0 0.00 0.00 0.00 74 1008.6
20260505095103 49 292 0.0 0.0 0.00 0.00 0.00 73 1008.5
20260505094604 49 324 0.0 0.0 0.00 0.00 0.00 72 1008.5
20260505094103 49 325 0.0 0.0 0.00 0.00 0.00 71 1008.5
20260505093603 49 325 0.0 0.0 0.00 0.00 0.00 71 1008.5
20260505093103 49 325 0.0 0.0 0.00 0.00 0.00 71 1008.6
20260505092603 49 325 0.0 0.0 0.00 0.00 0.00 70 1008.5
20260505092103 49 325 0.0 0.0 0.00 0.00 0.00 70 1008.6
20260505091103 49 325 0.0 0.0 0.00 0.00 0.00 69 1008.5
20260505090603 50 325 0.0 0.0 0.00 0.00 0.00 69 1008.4
20260505085603 50 325 0.0 0.0 0.00 0.00 0.00 69 1008.4
20260505085104 50 325 0.0 0.0 0.00 0.00 0.00 68 1008.4
20260505084603 50 325 0.0 0.0 0.00 0.00 0.00 68 1008.5
20260505084103 50 325 0.0 0.0 0.00 0.00 0.00 68 1008.5
20260505083603 50 325 0.0 0.0 0.00 0.00 0.00 67 1008.6
20260505083103 50 325 0.0 0.0 0.00 0.00 0.00 67 1008.6
20260505082604 50 325 0.0 0.0 0.00 0.00 0.00 66 1008.6
20260505082103 51 325 0.0 0.0 0.00 0.00 0.00 65 1008.6
20260505081603 51 325 0.0 0.0 0.00 0.00 0.00 64 1008.5
20260505081103 51 325 0.0 0.0 0.00 0.00 0.00 62 1008.5
20260505080603 51 325 0.0 0.0 0.00 0.00 0.00 61 1008.5
20260505080104 52 325 0.0 0.0 0.00 0.00 0.00 58 1008.4
20260505075603 52 325 0.0 0.0 0.00 0.00 0.00 56 1008.5
20260505075104 52 325 0.0 0.0 0.00 0.00 0.00 56 1008.6
20260505074603 52 325 0.0 0.0 0.00 0.00 0.00 55 1008.6
20260505073603 53 325 0.0 0.0 0.00 0.00 0.00 54 1008.6
20260505072604 53 325 0.0 0.0 0.00 0.00 0.00 53 1008.6
20260505072103 54 325 0.0 0.0 0.00 0.00 0.00 53 1008.6
20260505071603 54 325 0.0 0.0 0.00 0.00 0.00 52 1008.5
20260505071103 54 325 0.0 0.0 0.00 0.00 0.00 52 1008.5
20260505070603 55 325 0.0 0.0 0.00 0.00 0.00 51 1008.5
20260505070104 55 325 0.0 0.0 0.00 0.00 0.00 49 1008.2
20260505065603 55 325 0.0 0.0 0.00 0.00 0.00 49 1008.2
20260505065103 55 325 0.0 0.0 0.00 0.00 0.00 48 1008.2
20260505064103 56 325 0.0 0.0 0.00 0.00 0.00 47 1008.0
20260505063604 56 325 0.0 0.0 0.00 0.00 0.00 46 1007.8
20260505063103 57 325 0.0 0.0 0.00 0.00 0.00 45 1007.9
20260505062603 57 325 0.0 0.0 0.00 0.00 0.00 45 1007.9
20260505061604 58 325 0.0 0.0 0.00 0.00 0.00 43 1007.7
20260505060104 60 325 0.0 0.0 0.00 0.00 0.00 41 1007.7
20260505055603 60 325 0.0 0.0 0.00 0.00 0.00 40 1007.8
20260505055103 61 325 0.0 0.0 0.00 0.00 0.00 40 1007.8
20260505054603 61 325 0.0 0.0 0.00 0.00 0.00 39 1007.8
20260505054104 61 325 0.0 0.0 0.00 0.00 0.00 38 1007.7
20260505053604 61 325 0.0 0.0 0.00 0.00 0.00 38 1007.7
20260505053103 62 325 0.0 0.9 0.00 0.00 0.00 37 1007.6
20260505052604 62 319 0.0 0.0 0.00 0.00 0.00 38 1007.7
20260505052103 62 319 0.0 0.0 0.00 0.00 0.00 39 1007.8
20260505051603 62 319 0.0 0.0 0.00 0.00 0.00 38 1007.7
20260505051103 62 319 0.0 2.6 0.00 0.00 0.00 38 1007.7
20260505050603 62 2 0.0 2.6 0.00 0.00 0.00 39 1007.7
20260505050104 63 331 0.0 0.0 0.00 0.00 0.00 39 1007.6
20260505041604 63 339 0.9 4.3 0.00 0.00 0.00 43 1006.8
20260505041104 64 274 0.9 2.6 0.00 0.00 0.00 44 1006.7
20260505040604 64 308 0.0 7.8 0.00 0.00 0.00 44 1006.7
20260505040104 64 322 0.0 2.6 0.00 0.00 0.00 45 1006.6
20260505035103 64 312 0.0 2.6 0.00 0.00 0.00 45 1006.4
20260505034603 65 345 0.9 8.7 0.00 0.00 0.00 45 1006.4
20260505034103 65 316 0.9 5.2 0.00 0.00 0.00 44 1006.4
20260505033603 65 268 0.0 7.0 0.00 0.00 0.00 44 1006.3
20260505033103 66 328 2.6 8.7 0.00 0.00 0.00 43 1006.3
20260505032604 66 331 1.7 7.8 0.00 0.00 0.00 41 1006.2
20260505032103 67 337 0.9 10.4 0.00 0.00 0.00 40 1006.1
20260505031603 67 258 0.9 8.7 0.00 0.00 0.00 38 1006.0
20260505031103 67 312 0.0 7.8 0.00 0.00 0.00 36 1005.8
20260505030603 68 334 0.0 4.3 0.00 0.00 0.00 36 1005.9
20260505030104 68 327 1.7 10.4 0.00 0.00 0.00 34 1005.8
20260505025603 68 333 0.9 7.0 0.00 0.00 0.00 33 1005.8
20260505025104 69 278 0.9 8.7 0.00 0.00 0.00 33 1005.8
20260505024604 69 329 2.6 10.4 0.00 0.00 0.00 33 1005.5
20260505024103 69 233 1.7 7.8 0.00 0.00 0.00 33 1005.4
20260505023603 70 301 0.9 7.0 0.00 0.00 0.00 33 1005.3
20260505023103 70 275 2.6 8.7 0.00 0.00 0.00 33 1005.3
20260505022604 70 324 4.3 11.3 0.00 0.00 0.00 32 1005.2
20260505022104 71 305 3.5 10.4 0.00 0.00 0.00 32 1005.2
20260505021604 71 324 0.9 7.8 0.00 0.00 0.00 32 1005.2
20260505020603 72 349 4.3 13.0 0.00 0.00 0.00 31 1005.2
20260505020104 72 323 2.6 8.7 0.00 0.00 0.00 30 1005.2
20260505015604 73 261 2.6 11.3 0.00 0.00 0.00 30 1005.2
20260505014603 73 320 1.7 13.0 0.00 0.00 0.00 29 1005.2
20260505014104 73 326 5.2 13.0 0.00 0.00 0.00 29 1005.2
20260505013603 74 329 1.7 11.3 0.00 0.00 0.00 30 1005.2
20260505013103 74 314 0.9 10.4 0.00 0.00 0.00 30 1005.2
20260505012603 74 292 0.9 10.4 0.00 0.00 0.00 30 1005.3
20260505012104 74 329 6.1 13.9 0.00 0.00 0.00 29 1005.2
20260505011604 75 323 1.7 12.2 0.00 0.00 0.00 29 1005.3
20260505011103 75 316 0.9 10.4 0.00 0.00 0.00 29 1005.2
20260505010103 76 325 0.9 8.7 0.00 0.00 0.00 26 1005.1
20260505005603 76 327 2.6 12.2 0.00 0.00 0.00 24 1005.1
20260505005103 76 315 1.7 10.4 0.00 0.00 0.00 23 1005.1
20260505004604 76 332 1.7 7.0 0.00 0.00 0.00 25 1005.1
20260505003603 76 325 0.9 8.7 0.00 0.00 0.00 26 1005.3
20260505002603 76 328 1.7 5.2 0.00 0.00 0.00 23 1005.5
20260505002103 76 325 2.6 8.7 0.00 0.00 0.00 22 1005.4
20260505001603 75 323 2.6 8.7 0.00 0.00 0.00 23 1005.6
20260505001103 75 327 4.3 11.3 0.00 0.00 0.00 23 1005.6
20260505000603 74 327 0.0 10.4 0.00 0.00 0.00 25 1005.5
20260504235604 75 330 0.9 7.0 0.00 0.00 0.00 24 1005.5
20260504234603 76 307 2.6 8.7 0.00 0.00 0.00 24 1005.4
20260504234103 75 327 2.6 7.8 0.00 0.00 0.00 25 1005.5
20260504233603 76 316 1.7 7.8 0.00 0.00 0.00 24 1005.6
20260504233103 76 319 1.7 7.8 0.00 0.00 0.00 24 1005.6
20260504232603 77 332 1.7 10.4 0.00 0.00 0.00 24 1005.7
20260504232103 78 325 3.5 13.9 0.00 0.00 0.00 23 1005.8
20260504231603 77 317 2.6 8.7 0.00 0.00 0.00 23 1005.7
20260504231103 77 318 2.6 7.8 0.00 0.00 0.00 24 1005.7
20260504230603 76 339 1.7 7.0 0.00 0.00 0.00 24 1005.7
20260504230103 77 323 1.7 10.4 0.00 0.00 0.00 24 1005.7
20260504225603 77 320 0.9 10.4 0.00 0.00 0.00 23 1005.7
20260504225104 77 326 2.6 7.8 0.00 0.00 0.00 23 1005.8
20260504224603 77 324 5.2 12.2 0.00 0.00 0.00 23 1005.8
20260504224104 78 350 2.6 10.4 0.00 0.00 0.00 24 1005.8
20260504223603 78 324 5.2 10.4 0.00 0.00 0.00 23 1006.0
20260504223104 79 327 1.7 7.8 0.00 0.00 0.00 24 1005.9
20260504222603 79 292 0.9 11.3 0.00 0.00 0.00 24 1006.1
20260504222104 79 322 2.6 8.7 0.00 0.00 0.00 24 1006.0
20260504221604 78 315 1.7 2.6 0.00 0.00 0.00 25 1006.0
20260504221103 78 320 2.6 12.2 0.00 0.00 0.00 24 1006.2
20260504220104 78 313 1.7 12.2 0.00 0.00 0.00 23 1006.4
20260504215103 78 327 1.7 7.0 0.00 0.00 0.00 24 1006.5
20260504214604 79 331 2.6 10.4 0.00 0.00 0.00 23 1006.4
20260504214103 79 331 0.9 4.3 0.00 0.00 0.00 23 1006.3
20260504213603 79 81 0.0 2.6 0.00 0.00 0.00 23 1006.4
20260504213104 78 312 1.7 12.2 0.00 0.00 0.00 23 1006.4
20260504212103 78 329 1.7 10.4 0.00 0.00 0.00 24 1006.7
20260504211603 78 319 5.2 11.3 0.00 0.00 0.00 23 1006.7
20260504211103 79 317 0.9 7.0 0.00 0.00 0.00 24 1006.7
20260504210603 78 329 1.7 8.7 0.00 0.00 0.00 24 1006.8
20260504205603 78 326 2.6 8.7 0.00 0.00 0.00 24 1006.8
20260504205103 79 320 0.9 7.0 0.00 0.00 0.00 24 1006.8
20260504204604 79 323 1.7 5.2 0.00 0.00 0.00 25 1006.8
20260504204103 78 43 0.0 1.7 0.00 0.00 0.00 26 1006.8
20260504203604 78 326 2.6 7.8 0.00 0.00 0.00 25 1006.9
20260504202603 78 326 1.7 7.8 0.00 0.00 0.00 28 1007.0
20260504202104 77 22 0.0 2.6 0.00 0.00 0.00 27 1006.9
20260504201603 77 321 2.6 10.4 0.00 0.00 0.00 27 1006.9
20260504200103 77 12 0.0 1.7 0.00 0.00 0.00 28 1006.9
20260504195103 76 88 0.0 7.0 0.00 0.00 0.00 29 1007.1
20260504194603 76 324 4.3 7.8 0.00 0.00 0.00 28 1007.2
20260504194104 76 36 1.7 11.3 0.00 0.00 0.00 29 1007.1
20260504193104 76 323 1.7 10.4 0.00 0.00 0.00 28 1007.2
20260504192603 76 341 0.0 5.2 0.00 0.00 0.00 29 1007.1
20260504192104 75 329 1.7 8.7 0.00 0.00 0.00 29 1007.2
20260504191604 75 332 3.5 8.7 0.00 0.00 0.00 29 1007.3
20260504191103 75 317 3.5 10.4 0.00 0.00 0.00 29 1007.4
20260504190603 75 316 4.3 10.4 0.00 0.00 0.00 29 1007.3